Location: Dittelbrunn
(50.0738°N, 10.2196°E)
Time: 11:42:11
(UTC+00:00)

KORONAS-FOTON - Pass Details

Date: 18 September 2020
Orbit: 506 x 531 km, 82.4° (Epoch: 24 October)

Event Time Altitude Azimuth Distance (km) Brightness Sun altitude
Rises 19:19:35 0° 350° (N) 2,689 8.0 -18.5°
Reaches altitude 10° 19:21:45 10° 351° (N) 1,795 7.0 -18.8°
Maximum altitude 19:25:42 82° 78° (ENE) 545 3.7 -19.4°
Enters shadow 19:26:46 47° 161° (SSE) 716 4.1 -19.5°
